Regional Weather Roundup
Issued by NWS

Home | Current Version | Previous Version | Graphics & Text | Print | Product List | Glossary On
Versions: 1 2 3 4 5 6 7 8 9 10 11 12 13 14 15 16 17 18 19 20 21 22 23 24 25 26 27 28 29 30 31 32 33 34 35 36 37 38 39 40 41 42 43 44 45 46 47 48 49 50
000
ASUS45 KPSR 291100
RWRAZ

PRELIMINARY ARIZONA REGIONAL HOURLY WEATHER ROUNDUP
NATIONAL WEATHER SERVICE PHOENIX AZ
400 AM MST TUE JUL 29 2014

NOTE: FAIR INDICATES FEW OR NO CLOUDS BELOW 12,000 FEET WITH NO
SIGNIFICANT WEATHER AND/OR OBSTRUCTIONS TO VISIBILITY.

AZZ001>003-036-291200-
NORTHWEST ARIZONA

CITY           SKY/WX    TMP DP  RH WIND       PRES   REMARKS
KINGMAN        CLEAR     69  58  67 S8        30.12F
$$

AZZ004>008-015-016-018-291200-
NORTH CENTRAL ARIZONA

CITY           SKY/WX    TMP DP  RH WIND       PRES   REMARKS
GRAND CANYON   CLEAR     51  49  92 CALM      30.37S
WILLIAMS       CLEAR     55  52  88 S8        30.43F
PRESCOTT       CLEAR     63  56  78 W3        30.26S
FLAGSTAFF      CLEAR     52  49  89 CALM      30.40S
PAYSON         CLEAR     64  55  72 CALM      30.27S
PAGE           CLEAR     73  50  44 CALM      30.20R
$$

AZZ009>014-017-291200-
NORTHEAST ARIZONA

CITY           SKY/WX    TMP DP  RH WIND       PRES   REMARKS
WINSLOW        NOT AVBL
SAINT JOHNS    MOCLDY    66  58  75 S5        30.29S
WINDOW ROCK    CLOUDY    61  57  87 CALM      30.37S
$$

AZZ023-291200-
GREATER PHOENIX AREA

CITY           SKY/WX    TMP DP  RH WIND       PRES   REMARKS
PHOENIX        PTCLDY    94  58  29 NW5       29.92S
BUCKEYE          N/A     84  57  39 CALM      29.94S
DEER VALLEY    CLEAR     86  60  41 N3        29.95S
SCOTTSDALE     CLEAR     88  62  41 CALM      29.97S
MESA-GATEWAY     N/A    N/A N/A N/A MISG        N/A
$$

AZZ027-028-291200-
SOUTHWEST MARICOPA COUNTY AND PINAL COUNTY

CITY           SKY/WX    TMP DP  RH WIND       PRES   REMARKS
CASA GRANDE    CLEAR     84  57  39 SW6       29.97S
$$

AZZ503-504-507>509-291200-
SOUTHEAST ARIZONA

CITY           SKY/WX    TMP DP  RH WIND       PRES   REMARKS
TUCSON         CLEAR     79  66  64 S7        30.08S
DAVIS-MONTHAN  CLEAR     77  65  67 S6        30.07R
NOGALES        CLEAR     68  61  78 CALM      30.17S
SIERRA VISTA   PTCLDY    72  57  60 SW7       30.23R
SAFFORD        CLEAR     74  67  78 CALM      30.08S
$$

AZZ020-021-025-026-031-291200-
SOUTHWEST ARIZONA

CITY           SKY/WX    TMP DP  RH WIND       PRES   REMARKS
YUMA           CLEAR     89  63  41 S5        29.88S
$$

CAZ031-033-041-043-047-048-061-291200-
SOUTHERN CALIFORNIA

CITY           SKY/WX    TMP DP  RH WIND       PRES   REMARKS
DOWNTOWN L.A.  CLEAR     70  61  73 CALM      30.02R
L.A. AIRPORT   CLEAR     68  62  81 CALM      30.02S
SAN DIEGO      PTCLDY    72  64  76 N5        30.02F
BURBANK        CLEAR     72  57  59 SE5       30.03R
ONTARIO        PTCLDY    73  41  31 CALM      30.04S
RIVERSIDE      CLEAR     71  39  31 CALM      30.04S
PALM SPRINGS   CLEAR     87  52  29 CALM      29.93R
EL CENTRO NAS  CLEAR     89  51  27 W7        29.87R
IMPERIAL       CLEAR     86  54  33 NW3       29.86S
BLYTHE           N/A    N/A N/A N/A MISG      29.88S
$$

NVZ020-UTZ003-291200-
SOUTHERN NEVADA-UTAH

CITY           SKY/WX    TMP DP  RH WIND       PRES   REMARKS
LAS VEGAS      NOT AVBL
SALT LAKE CITY CLOUDY    68  63  84 CALM      30.18F
$$

NMZ009-TXZ055-291200-
NEW MEXICO-WEST TEXAS

CITY           SKY/WX    TMP DP  RH WIND       PRES   REMARKS
ALBUQUERQUE    CLOUDY    68  60  75 CALM      30.30S
EL PASO        MOCLDY    73  63  70 N16       30.16S
$$


........................KEY........................
SKY/WX - SKY CONDITION/WEATHER
TMP    - TEMPERATURE IN FAHRENHEIT
DP     - DEW POINT IN FAHRENHEIT
RH     - RELATIVE HUMIDITY IN PERCENT
WIND   - DIRECTION AND SPEED IN MILES PER HOUR (MPH)
VRB    - VARIABLE WIND DIRECTION
PRES   - MEAN SEA LEVEL PRESSURE IN INCHES OF MERCURY
         F - FALLING PRESSURE   R - RISING PRESSURE
         S - STEADY PRESSURE
VSB    - VISIBILITY IN MILES
HX     - HEAT INDEX IN FAHRENHEIT
WCI    - WIND CHILL INDEX IN FAHRENHEIT
TC     - TEMPERATURE IN CELSIUS WHICH IS ALSO KNOWN AS
         TEMPERATURE IN CENTIGRADE
AFB    - AIR FORCE BASE
         LUKE AFB IS LUKE AIR FORCE BASE
         DAVIS-MONTHAN IS DAVIS-MONTHAN AIR FORCE BASE
NAS    - NAVAL AIR STATION
         EL CENTRO NAS IS EL CENTRO NAVAL AIR STATION
N/A    - NOT AVAILABLE



USA.gov is the U.S. government's official web portal to all federal, state and local government web resources and services.